FW7008 Weather Reports


time (UTC)temp
F
wind
direction
speed
knots
gust
knots
rain 1hr
in
rain 24hr
in
rain mn
in
humidity
%
barometer
mb
20260903133653 65 63 0.0 0.0 0.00 0.00 0.00 98 1014.2
20260903133148 65 63 0.0 0.0 0.00 0.00 0.00 98 1013.9
20260903132648 65 63 0.0 0.0 0.00 0.00 0.00 98 1014.2
20260903132143 65 63 0.0 0.0 0.00 0.00 0.00 98 1014.2
20260903131638 65 62 0.0 0.0 0.00 0.00 0.00 98 1014.2
20260903131136 64 63 0.0 0.0 0.00 0.00 0.00 98 1014.2
20260903130632 64 63 0.0 0.0 0.00 0.00 0.00 98 1014.2
20260903130126 64 63 0.0 0.0 0.00 0.00 0.00 98 1014.6
20260903125624 64 63 0.0 0.0 0.00 0.00 0.00 98 1014.2
20260903125120 64 63 0.0 0.0 0.00 0.00 0.00 98 1013.9
20260903124620 64 63 0.0 0.0 0.00 0.00 0.00 98 1014.2
20260903124120 64 63 0.0 0.0 0.00 0.00 0.00 98 1014.2
20260903123620 64 63 0.0 0.0 0.00 0.00 0.00 98 1014.2
20260903123118 65 63 0.0 0.0 0.00 0.00 0.00 98 1014.2
20260903122618 64 63 0.0 0.0 0.00 0.00 0.00 98 1014.2
20260903122119 64 64 0.0 0.0 0.00 0.00 0.00 98 1014.2
20260903121618 64 64 0.0 0.0 0.00 0.00 0.00 98 1013.9
20260903121114 64 64 0.0 0.0 0.00 0.00 0.00 98 1014.2
20260903120613 64 60 0.0 0.0 0.00 0.00 0.00 98 1014.6
20260903120108 64 70 0.0 0.0 0.00 0.00 0.00 98 1014.6
20260903115605 64 70 0.0 0.0 0.00 0.00 0.00 98 1014.2
20260903115101 64 70 0.0 0.0 0.00 0.00 0.00 98 1014.2
20260903114555 65 73 0.0 0.0 0.00 0.00 0.00 98 1014.6
20260903114046 65 70 0.0 0.0 0.00 0.00 0.00 97 1014.2
20260903113541 65 70 0.0 0.0 0.00 0.00 0.00 97 1014.6
20260903113037 65 70 0.0 0.0 0.00 0.00 0.00 97 1014.6
20260903112533 65 70 0.0 0.0 0.00 0.00 0.00 97 1014.6
20260903112027 65 70 0.0 0.0 0.00 0.00 0.00 97 1014.6
20260903111520 65 70 0.0 0.0 0.00 0.00 0.00 97 1014.6
20260903111016 66 70 0.0 0.0 0.00 0.00 0.00 97 1014.6
20260903110512 65 70 0.0 0.0 0.00 0.00 0.00 97 1014.6
20260903110007 66 70 0.0 0.0 0.00 0.00 0.00 97 1014.2
20260903105502 66 72 0.0 0.0 0.00 0.00 0.00 96 1014.6
20260903105001 66 76 0.0 0.0 0.00 0.00 0.00 96 1014.6
20260903104501 65 80 0.0 0.0 0.00 0.00 0.00 96 1014.2
20260903103952 66 82 0.0 0.0 0.00 0.00 0.00 96 1014.6
20260903103448 66 85 0.0 0.0 0.00 0.00 0.00 96 1014.6
20260903102944 66 92 0.0 0.0 0.00 0.00 0.00 95 1014.6
20260903102439 67 104 0.0 0.0 0.00 0.00 0.00 96 1014.6
20260903101937 66 81 0.0 0.0 0.00 0.00 0.00 95 1014.9
20260903101432 67 82 0.0 0.0 0.00 0.00 0.00 95 1014.9
20260903100928 67 84 0.0 0.0 0.00 0.00 0.00 95 1014.6
20260903100423 67 90 0.0 0.0 0.00 0.00 0.00 95 1014.6
20260903095920 67 96 0.0 0.0 0.00 0.00 0.00 95 1014.9
20260903095415 68 104 0.0 0.0 0.00 0.00 0.00 95 1014.6
20260903094910 68 112 0.0 0.0 0.00 0.00 0.00 95 1014.9
20260903094409 68 120 0.0 0.0 0.00 0.00 0.00 95 1014.9
20260903093906 67 127 0.0 0.0 0.00 0.00 0.00 95 1014.9
20260903093400 67 110 0.0 0.0 0.00 0.00 0.00 94 1014.9
20260903092856 67 122 0.0 0.0 0.00 0.00 0.00 94 1014.6
20260903092355 68 121 0.0 0.0 0.00 0.00 0.00 94 1014.6
20260903091854 67 120 0.0 0.0 0.00 0.00 0.00 94 1014.9
20260903091354 68 124 0.0 0.0 0.00 0.00 0.00 94 1014.9
20260903090849 67 123 0.0 0.0 0.00 0.00 0.00 94 1014.9
20260903090344 68 113 0.0 0.0 0.00 0.00 0.00 94 1014.9
20260903085842 68 131 0.0 0.0 0.00 0.00 0.00 94 1014.9
20260903085336 68 111 0.0 0.0 0.00 0.00 0.00 94 1014.9
20260903084835 68 132 0.0 0.0 0.00 0.00 0.00 93 1014.9
20260903084334 68 162 0.0 0.0 0.00 0.00 0.00 93 1014.9
20260903083829 68 176 0.0 0.0 0.00 0.00 0.00 93 1014.9
20260903083325 68 122 0.0 0.0 0.00 0.00 0.00 93 1015.2
20260903082824 68 115 0.0 0.0 0.00 0.00 0.00 93 1015.2
20260903082319 68 131 0.0 0.0 0.00 0.00 0.00 93 1015.2
20260903081814 68 127 0.0 0.0 0.00 0.00 0.00 92 1015.2
20260903081310 68 217 0.0 0.0 0.00 0.00 0.00 92 1015.2
20260903080807 68 145 0.0 0.0 0.00 0.00 0.00 92 1015.2
20260903080303 68 194 0.0 0.0 0.00 0.00 0.00 92 1015.2
20260903075803 68 250 0.0 0.0 0.00 0.00 0.00 92 1015.2
20260903075258 68 230 0.0 0.0 0.00 0.00 0.00 92 1015.2
20260903074757 68 232 0.0 0.0 0.00 0.00 0.00 92 1015.2
20260903074252 69 245 0.0 0.0 0.00 0.00 0.00 91 1015.2
20260903073748 68 240 0.0 0.0 0.00 0.00 0.00 91 1015.2
20260903073243 68 218 0.0 0.0 0.00 0.00 0.00 91 1015.2
20260903072739 68 202 0.0 0.0 0.00 0.00 0.00 91 1014.9
20260903072235 68 181 0.0 0.0 0.00 0.00 0.00 92 1015.2
20260903071731 68 182 0.0 0.0 0.00 0.00 0.00 92 1014.9
20260903071227 69 225 0.0 0.0 0.00 0.00 0.00 92 1015.2
20260903070726 69 229 0.0 0.0 0.00 0.00 0.00 92 1015.2
20260903070222 69 224 0.0 0.0 0.00 0.00 0.00 91 1014.9
20260903065717 69 188 0.0 0.0 0.00 0.00 0.00 91 1014.9
20260903065216 69 215 0.0 0.0 0.00 0.00 0.00 91 1015.2
20260903064715 69 201 0.0 0.0 0.00 0.00 0.00 90 1015.2
20260903064211 69 207 3.5 4.3 0.00 0.00 0.00 89 1014.9
20260903063707 69 160 0.0 0.0 0.00 0.00 0.00 88 1014.9
20260903063201 69 234 0.0 0.0 0.00 0.00 0.00 87 1014.9
20260903062657 69 145 0.0 0.0 0.00 0.00 0.00 87 1015.2
20260903062152 69 209 0.0 0.0 0.00 0.00 0.00 87 1015.2
20260903061648 69 226 0.0 0.0 0.00 0.00 0.00 86 1015.2
20260903061147 69 224 4.3 7.0 0.00 0.00 0.00 86 1014.9
20260903060642 69 222 0.0 0.0 0.00 0.00 0.00 86 1014.9
20260903060137 70 235 0.0 0.0 0.00 0.00 0.00 85 1014.9
20260903055635 70 234 0.0 0.0 0.00 0.00 0.00 85 1014.9
20260903055133 70 175 3.5 5.2 0.00 0.00 0.00 84 1014.9
20260903054628 70 166 7.8 8.7 0.00 0.00 0.00 84 1014.6
20260903054124 70 251 4.3 7.8 0.00 0.00 0.00 83 1014.9
20260903053619 70 248 1.7 1.7 0.00 0.00 0.00 84 1014.9
20260903053115 70 234 1.7 5.2 0.00 0.00 0.00 84 1014.9
20260903052611 70 242 7.8 9.6 0.00 0.00 0.00 84 1014.9
20260903052106 70 236 8.7 11.3 0.00 0.00 0.00 84 1014.9
20260903051601 70 241 6.1 7.0 0.00 0.00 0.00 84 1014.6
20260903051056 70 231 2.6 7.0 0.00 0.00 0.00 85 1014.9
20260903050555 70 217 4.3 6.1 0.00 0.00 0.00 85 1014.9
20260903050051 70 259 7.8 12.2 0.00 0.00 0.00 85 1014.6
20260903045550 70 219 6.1 8.7 0.00 0.00 0.00 85 1014.9
20260903045047 70 255 5.2 9.6 0.00 0.00 0.00 85 1014.9
20260903044543 70 232 7.0 8.7 0.00 0.00 0.00 85 1014.9
20260903044038 70 245 6.1 7.0 0.00 0.00 0.00 86 1014.6
20260903043533 70 236 8.7 12.2 0.00 0.00 0.00 86 1014.6
20260903043033 70 234 7.0 8.7 0.00 0.00 0.00 86 1014.9
20260903042527 70 252 0.0 0.9 0.00 0.00 0.00 87 1014.9
20260903042023 70 230 0.0 0.9 0.00 0.00 0.00 87 1014.9
20260903041520 70 197 0.9 2.6 0.00 0.00 0.00 87 1014.6
20260903041015 70 195 0.0 0.0 0.00 0.00 0.00 87 1014.6
20260903040514 70 235 0.0 0.0 0.00 0.00 0.00 87 1014.6
20260903040011 70 145 0.0 0.0 0.00 0.00 0.00 86 1014.6
20260903035505 70 191 0.0 0.0 0.00 0.00 0.00 85 1014.6
20260903035001 70 189 0.0 0.0 0.00 0.00 0.00 84 1014.6
20260903034456 70 201 0.0 0.0 0.00 0.00 0.00 84 1014.6
20260903033955 70 145 0.0 0.0 0.00 0.00 0.00 84 1014.6
20260903033451 70 197 0.0 0.0 0.00 0.00 0.00 84 1014.6
20260903032946 70 142 0.0 0.0 0.00 0.00 0.00 83 1014.6
20260903032441 70 170 2.6 4.3 0.00 0.00 0.00 82 1014.6
20260903031936 70 230 3.5 5.2 0.00 0.00 0.00 82 1014.6
20260903031431 70 213 0.0 0.0 0.00 0.00 0.00 82 1014.6
20260903030926 70 238 0.0 0.0 0.00 0.00 0.00 82 1014.2
20260903030422 71 190 0.0 0.0 0.00 0.00 0.00 81 1014.6
20260903025918 71 224 0.0 0.0 0.00 0.00 0.00 81 1014.6
20260903025414 71 184 0.0 0.0 0.00 0.00 0.00 80 1014.6
20260903024908 71 207 3.5 4.3 0.00 0.00 0.00 79 1014.6
20260903024402 71 212 1.7 1.7 0.00 0.00 0.00 79 1014.6
20260903023857 71 212 2.6 4.3 0.00 0.00 0.00 79 1014.6
20260903023353 71 241 0.0 1.7 0.00 0.00 0.00 79 1014.6
20260903022848 71 231 0.0 0.0 0.00 0.00 0.00 80 1014.2
20260903022347 71 222 0.0 0.0 0.00 0.00 0.00 81 1014.2
20260903021846 71 208 4.3 5.2 0.00 0.00 0.00 80 1014.2
20260903021341 71 251 0.0 0.0 0.00 0.00 0.00 81 1014.6
20260903020841 71 256 0.0 0.0 0.00 0.00 0.00 80 1014.6
20260903020337 71 235 0.0 0.0 0.00 0.00 0.00 80 1014.6
20260903015836 71 199 5.2 6.1 0.00 0.00 0.00 79 1014.2
20260903015332 71 240 7.0 8.7 0.00 0.00 0.00 79 1014.6
20260903014827 71 233 0.0 0.0 0.00 0.00 0.00 78 1014.2
20260903014322 72 230 3.5 5.2 0.00 0.00 0.00 78 1014.2
20260903013817 72 240 6.1 8.7 0.00 0.00 0.00 77 1014.6
20260903013316 72 232 4.3 5.2 0.00 0.00 0.00 78 1014.6
20260903012815 72 221 4.3 6.1 0.00 0.00 0.00 78 1014.6
20260903012310 72 251 7.0 7.8 0.00 0.00 0.00 78 1014.6
20260903011809 72 255 6.1 7.0 0.00 0.00 0.00 78 1014.6
20260903011308 73 231 2.6 6.1 0.00 0.00 0.00 77 1014.6
20260903010804 73 246 4.3 7.0 0.00 0.00 0.00 77 1014.2
20260903010300 73 243 5.2 6.1 0.00 0.00 0.00 77 1014.6
20260903005758 73 251 5.2 7.8 0.00 0.00 0.00 77 1014.6
20260903005253 73 220 7.8 9.6 0.00 0.00 0.00 77 1014.6
20260903004749 73 208 7.0 8.7 0.00 0.00 0.00 77 1014.6
20260903004244 73 232 7.0 7.8 0.00 0.00 0.00 78 1014.2
20260903003739 73 243 4.3 5.2 0.00 0.00 0.00 78 1014.6
20260903003234 74 238 4.3 5.2 0.00 0.00 0.00 78 1014.6
20260903002729 73 247 7.8 9.6 0.00 0.00 0.00 80 1014.2
20260903002223 73 250 8.7 12.2 0.00 0.00 0.00 80 1014.2
20260903001714 73 226 6.1 9.6 0.00 0.00 0.00 80 1014.6
20260903001212 73 239 5.2 7.0 0.00 0.00 0.00 80 1014.2
20260903000708 73 260 7.8 11.3 0.00 0.00 0.00 80 1014.6
20260903000207 73 245 7.0 7.8 0.00 0.00 0.00 79 1014.6
20260902235706 74 239 8.7 11.3 0.00 0.00 0.00 78 1014.6
20260902235202 74 281 6.1 9.6 0.00 0.00 0.00 78 1014.6
20260902234701 75 251 7.8 9.6 0.00 0.00 0.00 76 1014.6
20260902234159 75 242 3.5 5.2 0.00 0.00 0.00 77 1014.9
20260902233654 75 227 9.6 13.9 0.00 0.00 0.00 76 1014.6
20260902233154 74 259 8.7 8.7 0.00 0.00 0.00 77 1014.9
20260902232653 74 229 7.0 8.7 0.00 0.00 0.00 78 1014.9
20260902232153 75 254 9.6 12.2 0.00 0.00 0.00 76 1014.9
20260902231647 75 176 7.0 8.7 0.00 0.00 0.00 75 1014.6
20260902231142 75 218 6.1 7.0 0.00 0.00 0.00 76 1014.9
20260902230638 75 213 6.1 7.8 0.00 0.00 0.00 76 1014.9
20260902230136 75 252 4.3 8.7 0.00 0.00 0.00 76 1014.9
20260902225632 75 264 6.1 7.8 0.00 0.00 0.00 75 1014.9
20260902225131 76 219 2.6 4.3 0.00 0.00 0.00 74 1014.9
20260902224629 76 231 9.6 9.6 0.00 0.00 0.00 73 1014.9
20260902224125 76 245 5.2 7.0 0.00 0.00 0.00 72 1014.9
20260902223621 77 229 5.2 7.8 0.00 0.00 0.00 70 1014.9
20260902223120 77 238 6.1 7.0 0.00 0.00 0.00 70 1014.9
20260902222619 76 204 6.1 7.8 0.00 0.00 0.00 70 1015.2
20260902222119 77 233 8.7 11.3 0.00 0.00 0.00 68 1015.6
20260902221613 77 239 9.6 9.6 0.00 0.00 0.00 68 1014.9
20260902221108 76 236 6.1 7.0 0.00 0.00 0.00 66 1015.2
20260902220604 77 242 8.7 9.6 0.00 0.00 0.00 65 1015.2
20260902220058 77 228 6.1 7.8 0.00 0.00 0.00 61 1015.6
20260902215554 77 154 5.2 6.1 0.00 0.00 0.00 60 1015.6
20260902215049 77 200 4.3 6.1 0.00 0.00 0.00 58 1015.6
20260902214544 77 257 11.3 13.0 0.00 0.00 0.00 62 1015.6
20260902214043 77 210 1.7 2.6 0.00 0.00 0.00 63 1015.6
20260902213539 78 275 5.2 7.0 0.00 0.00 0.00 58 1015.9
20260902213038 76 212 6.1 8.7 0.00 0.00 0.00 61 1015.6
20260902212534 77 274 5.2 7.8 0.00 0.00 0.00 62 1015.9
20260902212030 75 231 6.1 8.7 0.00 0.00 0.00 67 1015.6
20260902211526 76 236 5.2 7.0 0.00 0.00 0.00 70 1015.9
20260902211020 76 244 4.3 7.0 0.00 0.00 0.00 66 1015.9
20260902210514 76 275 5.2 7.8 0.00 0.00 0.00 69 1016.2
20260902210014 76 242 4.3 7.8 0.00 0.00 0.00 67 1015.9
20260902205508 76 234 7.8 9.6 0.00 0.00 0.00 68 1016.2
20260902205004 77 178 3.5 5.2 0.00 0.00 0.00 65 1015.9
20260902204503 76 261 7.0 8.7 0.00 0.00 0.00 67 1016.2
20260902203959 76 207 7.0 9.6 0.00 0.00 0.00 65 1015.9
20260902203454 77 252 7.8 11.3 0.00 0.00 0.00 65 1015.9
20260902202953 76 258 6.1 7.0 0.00 0.00 0.00 69 1015.9
20260902202449 76 227 4.3 6.1 0.00 0.00 0.00 70 1016.2
20260902201946 77 175 7.0 8.7 0.00 0.00 0.00 70 1016.2
20260902201440 77 204 6.1 7.8 0.00 0.00 0.00 71 1015.9
20260902200940 77 144 4.3 6.1 0.00 0.00 0.00 70 1016.2
20260902200435 78 258 6.1 7.8 0.00 0.00 0.00 70 1016.2
20260902195930 78 238 4.3 6.1 0.00 0.00 0.00 70 1016.2
20260902195426 77 246 7.0 8.7 0.00 0.00 0.00 70 1016.6
20260902194920 76 206 3.5 6.1 0.00 0.00 0.00 71 1016.2
20260902194420 77 232 6.1 7.8 0.00 0.00 0.00 70 1016.2
20260902193915 77 155 4.3 5.2 0.00 0.00 0.00 71 1016.2
20260902193411 77 244 3.5 4.3 0.00 0.00 0.00 70 1016.6
20260902192910 77 243 5.2 7.0 0.00 0.00 0.00 72 1016.6
20260902192409 76 222 1.7 2.6 0.00 0.00 0.00 71 1016.6
20260902191908 77 264 4.3 7.0 0.00 0.00 0.00 71 1016.6
20260902191404 77 211 3.5 4.3 0.00 0.00 0.00 72 1016.6
20260902190858 76 224 4.3 5.2 0.00 0.00 0.00 73 1016.6
20260902190353 76 248 3.5 4.3 0.00 0.00 0.00 73 1016.6
20260902185849 77 214 3.5 5.2 0.00 0.00 0.00 72 1016.9
20260902185345 76 227 3.5 6.1 0.00 0.00 0.00 71 1016.9
20260902184840 76 166 5.2 7.0 0.00 0.00 0.00 73 1016.9
20260902184335 77 221 7.0 9.6 0.00 0.00 0.00 70 1016.6
20260902183830 77 244 7.0 7.8 0.00 0.00 0.00 72 1016.6
20260902183327 77 251 3.5 4.3 0.00 0.00 0.00 71 1016.9
20260902182817 77 68 1.7 2.6 0.00 0.00 0.00 69 1016.9
20260902182313 77 117 2.6 2.6 0.00 0.00 0.00 68 1016.9
20260902181809 78 79 0.0 0.0 0.00 0.00 0.00 67 1016.6
20260902181310 78 141 0.0 0.0 0.00 0.00 0.00 68 1016.6
20260902180804 77 132 0.0 0.0 0.00 0.00 0.00 72 1016.6
20260902180300 77 260 0.0 0.0 0.00 0.00 0.00 70 1016.9
20260902175755 75 24 0.0 0.0 0.00 0.00 0.00 75 1016.6
20260902175251 77 296 0.0 0.0 0.00 0.00 0.00 72 1016.9
20260902174746 77 293 0.0 0.0 0.00 0.00 0.00 70 1016.9
20260902174242 78 101 0.0 0.0 0.00 0.00 0.00 68 1016.9
20260902173738 76 63 0.0 0.0 0.00 0.00 0.00 70 1016.9
20260902173237 77 130 0.0 0.0 0.00 0.00 0.00 71 1016.9
20260902172732 76 62 0.0 0.0 0.00 0.00 0.00 71 1016.9
20260902172231 75 60 0.0 0.0 0.00 0.00 0.00 73 1016.9
20260902171726 75 110 0.0 0.0 0.00 0.00 0.00 74 1016.9
20260902171221 75 168 0.0 0.0 0.00 0.00 0.00 73 1016.6
20260902170718 74 170 0.0 0.0 0.00 0.00 0.00 73 1016.6
20260902170213 75 119 0.0 0.0 0.00 0.00 0.00 73 1016.9
20260902165708 74 79 0.0 0.0 0.00 0.00 0.00 75 1016.6
20260902165203 73 332 0.0 0.0 0.00 0.00 0.00 76 1016.9
20260902164657 72 1 0.0 0.0 0.00 0.00 0.00 78 1016.6
20260902164156 72 73 0.0 0.0 0.00 0.00 0.00 80 1016.6
20260902163652 71 126 0.0 0.0 0.00 0.00 0.00 81 1016.6
20260902163151 70 93 0.0 0.0 0.00 0.00 0.00 82 1016.6
20260902162650 71 130 0.0 0.0 0.00 0.00 0.00 81 1016.9
20260902162144 73 122 0.0 0.0 0.00 0.00 0.00 78 1016.6
20260902161640 73 85 0.0 0.0 0.00 0.00 0.00 78 1016.6
20260902161136 74 105 0.0 0.0 0.00 0.00 0.00 77 1016.6
20260902160632 73 41 0.0 0.0 0.00 0.00 0.00 79 1016.6
20260902160127 72 41 0.0 0.0 0.00 0.00 0.00 81 1016.6
20260902155625 71 64 0.0 0.0 0.00 0.00 0.00 82 1016.6
20260902155124 71 110 0.0 0.0 0.00 0.00 0.00 82 1016.6
20260902154619 71 59 0.0 0.0 0.00 0.00 0.00 81 1016.6
20260902154114 71 66 0.0 0.0 0.00 0.00 0.00 82 1016.6
20260902153613 70 63 0.0 0.0 0.00 0.00 0.00 84 1016.6
20260902153108 70 80 0.0 0.0 0.00 0.00 0.00 84 1016.6
20260902152604 70 88 0.0 0.0 0.00 0.00 0.00 85 1016.6
20260902152059 69 65 0.0 0.0 0.00 0.00 0.00 86 1016.6
20260902151555 69 91 0.0 0.0 0.00 0.00 0.00 86 1016.6
20260902151054 69 49 0.0 0.0 0.00 0.00 0.00 87 1016.6
20260902150544 68 48 0.0 0.0 0.00 0.00 0.00 87 1016.6
20260902150040 67 48 0.0 0.0 0.00 0.00 0.00 90 1016.6
20260902145534 67 59 0.0 0.0 0.00 0.00 0.00 91 1016.6
20260902145028 66 60 0.0 0.0 0.00 0.00 0.00 93 1016.6
20260902144525 65 61 0.0 0.0 0.00 0.00 0.00 94 1016.6
20260902144020 65 63 0.0 0.0 0.00 0.00 0.00 95 1016.2
20260902143515 64 68 0.0 0.0 0.00 0.00 0.00 96 1016.6
20260902143010 63 68 0.0 0.0 0.00 0.00 0.00 96 1016.6
20260902142506 63 69 0.0 0.0 0.00 0.00 0.00 97 1016.6
20260902142001 63 68 0.0 0.0 0.00 0.00 0.00 97 1016.2
20260902141455 62 70 0.0 0.0 0.00 0.00 0.00 98 1016.2
20260902140949 61 68 0.0 0.0 0.00 0.00 0.00 98 1016.2
20260902140445 61 68 0.0 0.0 0.00 0.00 0.00 98 1016.6
20260902135939 60 68 0.0 0.0 0.00 0.00 0.00 98 1016.2
20260902135434 60 68 0.0 0.0 0.00 0.00 0.00 98 1016.2
20260902134933 60 69 0.0 0.0 0.00 0.00 0.00 98 1015.9
20260902134429 59 66 0.0 0.0 0.00 0.00 0.00 99 1016.2